Weather History for Port Aransas, TX

Change the Weather History Date:

Thursday, February 28, 2013

  Actual Average (KCRP) Record (KCRP)
Temperature  
Mean Temperature 54 °F 63 °F  
Max Temperature 59 °F 73 °F 94 °F (1940)
Min Temperature 48 °F 53 °F 30 °F (1890)
Degree Days  
Heating Degree Days 12 4  
Month to date heating degree days 174  
Since 1 July heating degree days 800  
Cooling Degree Days 0 2  
Month to date cooling degree days 46  
Year to date cooling degree days 76  
Growing Degree Days 4 (Base 50)    
Moisture  
Dew Point 33 °F    
Average Humidity 46    
Maximum Humidity 67    
Minimum Humidity 30    
Precipitation  
Precipitation 0.00 in 0.09 in 2.11 in (1990)
Month to date precipitation 1.93  
Year to date precipitation 3.47  
Snow  
Snow 0.00 in - - ()
Month to date snowfall  
Since 1 July snowfall  
Snow Depth -    
Sea Level Pressure  
Sea Level Pressure 30.24 in    
Wind  
Wind Speed 13 mph (NNE)    
Max Wind Speed 24 mph    
Max Gust Speed 30 mph    
Visibility 10 miles    
Events      
T = Trace of Precipitation, MM = Missing Value Source: NWS Daily Summary

Daily Weather History Graph

Daily Weather History Graph

Search for Another Location

Airport:

Trip Planner

Search our weather history database for the weather conditions in past years. The results will help you decide how hot, cold, wet, or windy it might be!

Date:

Astronomy

Feb. 28, 2013 Rise Set
Actual Time 6:53 AM CST 6:28 PM CST
Civil Twilight 6:30 AM CST 6:51 PM CST
Nautical Twilight 6:02 AM CST 7:19 PM CST
Astronomical Twilight 5:35 AM CST 7:46 PM CST
Moon 9:33 PM CST (2/28) 8:24 AM CST (2/28)
Length of Visible Light 12h 21m
Length of Day
11h 34m
Waning Gibbous, 90% of the Moon is Illuminated
Feb 28
Waning Gibbous
Mar 4
Last Quarter
Mar 11
New
Mar 19
First Quarter
Mar 27
Full

Hourly Weather History & Observations

Time (CST) Temp. Dew Point Humidity Pressure Visibility Wind Dir Wind Speed Gust Speed Precip Events Conditions
12:35 AM 53.6 °F 35.6 °F 51% 30.18 in 10.0 mi NNE 10.4 mph - N/A   Clear
12:55 AM 53.6 °F 37.4 °F 54% 30.19 in 10.0 mi NNE 9.2 mph - N/A   Clear
1:15 AM 53.6 °F 39.2 °F 58% 30.19 in 10.0 mi NNE 5.8 mph - N/A   Clear
1:35 AM 51.8 °F 41.0 °F 67% 30.20 in 10.0 mi NNE 6.9 mph - N/A   Clear
1:55 AM 53.6 °F 37.4 °F 54% 30.20 in 10.0 mi North 8.1 mph - N/A   Clear
2:15 AM 53.6 °F 35.6 °F 51% 30.20 in 10.0 mi North 11.5 mph - N/A   Clear
2:35 AM 53.6 °F 33.8 °F 47% 30.20 in 10.0 mi NNE 13.8 mph - N/A   Clear
2:55 AM 53.6 °F 32.0 °F 44% 30.20 in 10.0 mi NNE 13.8 mph 25.3 mph N/A   Clear
3:15 AM 51.8 °F 33.8 °F 50% 30.20 in 10.0 mi NNE 15.0 mph 19.6 mph N/A   Clear
3:35 AM 51.8 °F 30.2 °F 44% 30.20 in 10.0 mi NNE 20.7 mph 26.5 mph N/A   Clear
3:55 AM 51.8 °F 32.0 °F 47% 30.21 in 10.0 mi NNE 16.1 mph 23.0 mph N/A   Clear
4:15 AM 50.0 °F 32.0 °F 50% 30.21 in 10.0 mi NNE 16.1 mph - N/A   Clear
4:55 AM 50.0 °F 32.0 °F 50% 30.22 in 10.0 mi NNE 17.3 mph 27.6 mph N/A   Clear
5:15 AM 50.0 °F 32.0 °F 50% 30.24 in 10.0 mi NNE 19.6 mph 27.6 mph N/A   Clear
5:55 AM 50.0 °F 33.8 °F 54% 30.24 in 10.0 mi NNE 21.9 mph 27.6 mph N/A   Clear
6:15 AM 50.0 °F 33.8 °F 54% 30.24 in 10.0 mi NNE 19.6 mph 23.0 mph N/A   Clear
6:35 AM 50.0 °F 32.0 °F 50% 30.24 in 10.0 mi NNE 17.3 mph 26.5 mph N/A   Clear
6:55 AM 50.0 °F 32.0 °F 50% 30.26 in 10.0 mi North 20.7 mph 25.3 mph N/A   Clear
7:15 AM 48.2 °F 32.0 °F 54% 30.27 in 10.0 mi NNE 18.4 mph - N/A   Clear
7:35 AM 50.0 °F 32.0 °F 50% 30.27 in 10.0 mi NNE 19.6 mph 24.2 mph N/A   Clear
7:55 AM 48.2 °F 32.0 °F 54% 30.28 in 10.0 mi NNE 19.6 mph 26.5 mph N/A   Clear
8:15 AM 50.0 °F 32.0 °F 50% 30.28 in 10.0 mi North 19.6 mph 29.9 mph N/A   Clear
8:35 AM 50.0 °F 32.0 °F 50% 30.30 in 10.0 mi North 21.9 mph 28.8 mph N/A   Clear
8:55 AM 50.0 °F 32.0 °F 50% 30.30 in 10.0 mi NNE 24.2 mph 28.8 mph N/A   Clear
9:15 AM 50.0 °F 32.0 °F 50% 30.30 in 10.0 mi North 21.9 mph 28.8 mph N/A   Clear
9:35 AM 50.0 °F 32.0 °F 50% 30.30 in 10.0 mi North 23.0 mph 28.8 mph N/A   Clear
9:55 AM - - N/A% - - North - - N/A   Unknown
10:15 AM 51.8 °F 32.0 °F 47% 30.30 in - NNE 19.6 mph 25.3 mph N/A   Clear
10:35 AM 53.1 °F 31.6 °F 44% 30.30 in 10.0 mi NNE 16.1 mph 25.3 mph N/A   Clear
10:55 AM 54.9 °F 32.5 °F 43% 30.29 in 10.0 mi NNE 19.6 mph 23.0 mph N/A   Clear
11:15 AM 55.8 °F 32.2 °F 41% 30.29 in 10.0 mi North 20.7 mph 26.5 mph N/A   Clear
11:35 AM 56.3 °F 31.5 °F 39% 30.29 in 10.0 mi North 17.3 mph 23.0 mph N/A   Clear
11:55 AM 57.0 °F 28.8 °F 34% 30.28 in 10.0 mi North 20.7 mph 25.3 mph N/A   Clear
12:15 PM 57.7 °F 29.1 °F 34% 30.26 in 10.0 mi North 19.6 mph 25.3 mph N/A   Clear
12:35 PM 58.3 °F 29.3 °F 33% 30.26 in 10.0 mi NNE 18.4 mph 24.2 mph N/A   Clear
12:55 PM 58.8 °F 29.8 °F 33% 30.25 in 10.0 mi North 17.3 mph - N/A   Clear
1:15 PM 57.6 °F 29.1 °F 34% 30.24 in 10.0 mi North 17.3 mph 23.0 mph N/A   Clear
1:35 PM 58.3 °F 27.7 °F 31% 30.23 in 10.0 mi North 13.8 mph 20.7 mph N/A   Clear
1:55 PM 59.9 °F 28.0 °F 30% 30.22 in 10.0 mi North 15.0 mph 23.0 mph N/A   Clear
2:15 PM 58.5 °F 27.5 °F 31% 30.21 in 10.0 mi North 12.7 mph 21.9 mph N/A   Clear
2:35 PM 58.3 °F 27.5 °F 31% 30.20 in 10.0 mi North 15.0 mph 21.9 mph N/A   Clear
2:55 PM 58.5 °F 29.1 °F 33% 30.20 in 10.0 mi NNE 11.5 mph 18.4 mph N/A   Clear
3:15 PM 58.1 °F 28.2 °F 32% 30.20 in 10.0 mi North 9.2 mph 18.4 mph N/A   Clear
3:35 PM 58.3 °F 29.1 °F 33% 30.19 in 10.0 mi North 10.4 mph - N/A   Clear
3:55 PM 58.1 °F 28.2 °F 32% 30.19 in 10.0 mi North 10.4 mph - N/A   Clear
4:15 PM 58.5 °F 28.9 °F 33% 30.19 in 10.0 mi North 10.4 mph - N/A   Clear
4:35 PM 58.3 °F 28.6 °F 32% 30.20 in 10.0 mi North 11.5 mph - N/A   Clear
4:55 PM 58.3 °F 28.9 °F 33% 30.20 in 10.0 mi North 11.5 mph 20.7 mph N/A   Clear
5:15 PM 58.1 °F 28.0 °F 32% 30.20 in 10.0 mi North 10.4 mph - N/A   Clear
6:15 PM 57.4 °F 30.2 °F 36% 30.21 in 10.0 mi North 9.2 mph - N/A   Clear
6:35 PM 57.0 °F 30.7 °F 37% 30.21 in 10.0 mi North 9.2 mph - N/A   Clear
7:15 PM 55.8 °F 33.3 °F 43% 30.22 in 10.0 mi North 6.9 mph - N/A   Clear
7:35 PM 55.2 °F 35.4 °F 47% 30.23 in 10.0 mi North 5.8 mph - N/A   Clear
7:55 PM 54.5 °F 36.5 °F 51% 30.24 in 10.0 mi North 4.6 mph - N/A   Clear
8:15 PM 54.1 °F 37.4 °F 53% 30.24 in 10.0 mi North 4.6 mph - N/A   Clear
8:35 PM 53.8 °F 38.3 °F 56% 30.24 in 10.0 mi North 4.6 mph - N/A   Clear
8:55 PM 53.1 °F 38.7 °F 58% 30.24 in 10.0 mi North 5.8 mph - N/A   Clear
9:15 PM 52.3 °F 38.7 °F 60% 30.24 in 10.0 mi North 4.6 mph - N/A   Clear
9:35 PM 52.2 °F 39.2 °F 61% 30.25 in 10.0 mi North 5.8 mph - N/A   Clear
9:55 PM 52.7 °F 38.3 °F 58% 30.25 in 10.0 mi North 5.8 mph - N/A   Clear
10:15 PM 51.8 °F 40.5 °F 65% 30.25 in 10.0 mi NNE 3.5 mph - N/A   Clear
10:35 PM 52.0 °F 37.4 °F 58% 30.25 in 10.0 mi Calm Calm - N/A   Clear
10:55 PM 52.0 °F 38.7 °F 60% 30.26 in 10.0 mi Calm Calm - N/A   Clear
11:15 PM 52.5 °F 40.3 °F 63% 30.27 in 10.0 mi Calm Calm - N/A   Clear
11:35 PM 52.3 °F 41.0 °F 65% 30.27 in 10.0 mi Calm Calm - N/A   Clear